{"data":{"norad_id":60333,"intl_designator":"2024-136E","name":"STARLINK-32133","alt_names":[],"object_type":"PAYLOAD","status":"ACTIVE","operator":null,"country":"US","launch_date":"2024-08-02","launch_site_code":"AFETR","launch_vehicle":null,"mission":null,"orbit_class":"UNKNOWN","rcs_meters":null,"size_class":null,"mass_kg":null,"dimensions":null,"purposes":["comms"],"wikipedia_slug":null,"has_3d_model":false,"image_url":null,"decayed_at":null,"tle_current":{"epoch":"2026-05-25T02:58:18.416928Z","epoch_age_seconds":61588,"freshness":"FRESH","line1":"1 60333U 24136E   26145.12382427 -.00004011  00000+0 -12351-3 0  9990","line2":"2 60333  53.1611  80.8753 0001014  89.6629 270.4488 15.30165879101360","mean_motion":15.30165879,"eccentricity":0.0001014,"inclination_deg":53.1611,"raan_deg":80.8753,"arg_perigee_deg":89.6629,"mean_anomaly_deg":270.4488,"bstar":-0.00012351,"rev_number":10136,"period_min":94.107444151158,"perigee_km":474.62201023755,"apogee_km":476.01189069871,"semimajor_km":6853.4539504681,"source":"CELESTRAK","updated_at":"2026-05-25T13:38:19.233495Z"}}}